[[{"header":{"parameterUnit":"m.s-1","parameterCategory":1,"la1":30.2991,"la2":30.254,"lo1":-89.0895,"lo2":-89.0444,"dy":0.0017,"dx":0.0017,"nx":28,"ny":28,"refTime":"2026-02-05T03:00:00:Z","depth":0,"parameterNumber":2,"parameterNumberName":"U-component_of_WINDS"},"data":[0,0,0,0,0,0,0,0,0,0,0,0,0,0,0,0,0,0,0,0,0,0,0,0,0,0,0,0,0,0,0,0,0,0,0,0,0,0,0,0,0,0,0,0,0,0,0,0,0,0,0,0,0,0,0,0,0,0,1.347,1.347,0,1.35,1.3501,1.3501,1.3512,1.3512,1.3512,1.3511,1.3543,1.3544,1.3545,0,0,0,0,0,0,0,0,0,0,0,0,0,1.3424,1.3424,1.347,1.347,1.3471,1.35,1.3501,1.3501,1.3512,1.3512,1.3512,1.3511,1.3543,1.3544,1.3545,0,0,0,0,0,0,0,0,0,0,0,0,0,1.3448,1.3425,1.347,1.348,1.3481,1.35,1.3501,1.3501,1.3512,1.3512,1.3511,1.3511,1.3542,1.3544,1.3545,1.3557,0,0,1.3549,1.355,0,0,0,0,0,0,0,0,1.3446,1.3449,1.3478,1.3479,1.348,1.3502,1.3496,1.352,1.3512,1.35,1.3511,1.3511,1.353,1.3532,1.3538,1.3559,1.356,1.3549,1.355,1.3551,1.3551,0,0,0,0,0,0,0,1.3445,1.3448,1.3482,1.3478,1.348,1.3483,1.3487,1.3501,1.3515,1.3501,1.3502,1.3505,1.353,1.3537,1.3539,1.3561,1.3549,1.3551,1.3552,1.3552,1.3596,1.3597,0,0,0,0,0,0,1.3441,1.3447,1.3481,1.3483,1.3463,1.3484,1.3488,1.3495,1.3515,1.3518,1.3505,1.3506,1.3534,1.3537,1.354,1.3557,1.3551,1.3552,1.3553,1.3596,1.3596,1.3597,0,0,0,0,0,0,1.344,1.3444,1.348,1.3465,1.347,1.3485,1.3493,1.3496,1.3502,1.3519,1.3521,1.3509,1.3534,1.3538,1.3554,1.3559,1.3553,1.3554,1.3596,1.3596,1.3597,1.3591,0,0,0,0,0,0,1.3439,1.3444,1.3448,1.3465,1.3471,1.3492,1.3494,1.3497,1.3505,1.3505,1.3523,1.3526,1.3534,1.3551,1.3555,1.356,1.3555,1.3595,1.3596,1.3596,1.3591,1.3591,1.3592,0,0,0,0,0,1.3437,1.3444,1.3448,1.3452,1.3476,1.3492,1.3495,1.3505,1.3505,1.351,1.3521,1.3525,1.3558,1.3553,1.3557,1.3563,1.3595,1.3596,1.3596,1.3591,1.3591,1.3592,0,0,0,0,0,0,1.3426,1.3447,1.3451,1.3463,1.3476,1.3494,1.35,1.3505,1.3518,1.3518,1.353,1.3534,1.3549,1.3558,1.3552,1.3578,1.3577,1.3578,1.3571,1.3572,1.3572,1.357,1.3557,0,0,0,0,0,1.3425,1.3436,1.3454,1.3464,1.347,1.3484,1.3491,1.3498,1.3512,1.3517,1.3529,1.3542,1.3556,1.3565,1.3578,1.3593,1.3598,1.3599,1.36,1.36,1.3601,1.3612,1.3613,1.3599,1.3599,1.3599,0,0,1.3423,1.3436,1.3442,1.3462,1.3472,1.3485,1.3488,1.35,1.351,1.3519,1.3535,1.3544,1.356,1.3576,1.3584,1.3584,1.3607,1.3601,1.3601,1.3602,1.3613,1.3614,1.3616,1.36,1.36,1.3599,0,0,1.3426,1.3436,1.3447,1.3458,1.3474,1.3484,1.3487,1.3505,1.3512,1.3528,1.3536,1.3548,1.357,1.3582,1.3591,1.3603,1.3608,1.3607,1.3608,1.3619,1.362,1.3621,1.3627,1.3628,1.3608,1.3608,1.3608,0,1.3422,1.344,1.3451,1.3464,1.3473,1.3483,1.3495,1.3505,1.3525,1.3532,1.3532,1.3562,1.3574,1.3594,1.3597,1.3604,1.3608,1.3604,1.3619,1.362,1.3622,1.3627,1.3629,1.3608,1.3608,1.3608,1.3608,0,1.3434,1.3447,1.3454,1.3473,1.3484,1.3495,1.351,1.352,1.3527,1.3537,1.3555,1.357,1.3587,1.3593,1.3599,1.3615,1.3614,1.3617,1.3616,1.3623,1.3628,1.363,1.3607,1.3608,1.3608,1.3608,0,0,1.3428,1.3457,1.3459,1.3469,1.349,1.35,1.3514,1.3532,1.354,1.3555,1.3567,1.3588,1.3591,1.3601,1.361,1.3619,1.363,1.3621,1.3621,1.3622,1.365,1.3648,1.365,1.3634,1.3634,1.3634,1.3649,0,1.3434,1.3458,1.3471,1.349,1.3503,1.3515,1.3527,1.3542,1.3553,1.3566,1.3579,1.3594,1.3596,1.3603,1.3613,1.3626,1.3635,1.3625,1.3646,1.3647,1.3641,1.3652,1.3649,1.3662,1.3651,1.3651,1.3651,0,1.3443,1.3459,1.3479,1.3501,1.3507,1.3517,1.3536,1.3549,1.3567,1.3574,1.3588,1.3597,1.3613,1.3613,1.3637,1.363,1.364,1.3648,1.3649,1.3651,1.3649,1.3655,1.3666,1.3668,1.3654,1.3654,1.3654,0,1.3438,1.3464,1.348,1.3489,1.3514,1.3521,1.3533,1.3551,1.3561,1.3578,1.3586,1.3604,1.3614,1.3629,1.3644,1.3642,1.3667,1.3667,1.3675,1.3675,1.3679,1.3678,1.3692,1.3685,1.3685,1.3685,1.3685,0,1.3443,1.3455,1.3478,1.3488,1.3503,1.3519,1.3534,1.3546,1.3563,1.3576,1.3588,1.3601,1.3619,1.3635,1.3647,1.3666,1.367,1.3678,1.3681,1.3676,1.3676,1.3682,1.3682,1.3686,1.3686,1.3685,1.3685,0,1.3439,1.3455,1.3473,1.3497,1.3503,1.3513,1.3534,1.3545,1.3558,1.3576,1.3581,1.3601,1.362,1.3637,1.3662,1.367,1.369,1.3694,1.3684,1.3685,1.3693,1.3692,1.3711,1.3715,1.3706,1.3706,1.3706,0,1.3441,1.3451,1.3476,1.3486,1.3497,1.3513,1.3525,1.3542,1.3553,1.3577,1.3586,1.3606,1.3623,1.3654,1.3671,1.3692,1.3696,1.3701,1.3699,1.3695,1.3697,1.3696,1.3698,1.3701,1.3701,1.3701,1.3701,0,1.3443,1.3451,1.3467,1.3487,1.35,1.3517,1.3533,1.3541,1.3562,1.3575,1.3595,1.3609,1.3636,1.3656,1.3679,1.3692,1.3701,1.3702,1.3705,1.3701,1.3695,1.3699,1.3685,1.3701,1.3701,1.3701,1.3701,1.3701,1.3442,1.3452,1.3472,1.3491,1.3506,1.3522,1.3534,1.3549,1.3566,1.359,1.3599,1.362,1.3642,1.3673,1.3686,1.3704,1.3705,1.3709,1.371,1.3711,1.3711,1.3693,1.3708,1.3708,1.3708,1.3708,1.3708,0,1.3445,1.3459,1.3476,1.35,1.3515,1.3523,1.3543,1.3555,1.3573,1.3592,1.361,1.3634,1.3656,1.3676,1.3699,1.3709,1.3714,1.3715,1.3714,1.3717,1.3708,1.3703,1.3711,1.3711,1.3711,1.3711,1.3711,1.3711,1.3448,1.3467,1.3478,1.3505,1.352,1.354,1.3551,1.3567,1.3583,1.361,1.3627,1.3641,1.3661,1.3686,1.3707,1.3712,1.372,1.372,1.3727,1.3718,1.3717,1.3717,1.3713,1.3722,1.3722,1.3734,1.3735,1.3735]},{"header":{"parameterUnit":"m.s-1","parameterCategory":1,"la1":30.2991,"la2":30.254,"lo1":-89.0895,"lo2":-89.0444,"dy":0.0017,"dx":0.0017,"nx":28,"ny":28,"refTime":"2026-02-05T03:00:00:Z","depth":0,"parameterNumber":3,"parameterNumberName":"V-component_of_WINDS"},"data":[0,0,0,0,0,0,0,0,0,0,0,0,0,0,0,0,0,0,0,0,0,0,0,0,0,0,0,0,0,0,0,0,0,0,0,0,0,0,0,0,0,0,0,0,0,0,0,0,0,0,0,0,0,0,0,0,0,0,-5.4173,-5.4174,0,-5.4235,-5.4236,-5.4236,-5.4259,-5.4259,-5.4259,-5.4259,-5.4317,-5.4319,-5.4321,0,0,0,0,0,0,0,0,0,0,0,0,0,-5.4075,-5.4077,-5.4173,-5.4174,-5.4175,-5.4235,-5.4236,-5.4236,-5.426,-5.4259,-5.4259,-5.4259,-5.4317,-5.4319,-5.4321,0,0,0,0,0,0,0,0,0,0,0,0,0,-5.4125,-5.4078,-5.4173,-5.4194,-5.4196,-5.4235,-5.4236,-5.4237,-5.426,-5.4259,-5.4259,-5.4259,-5.4316,-5.4319,-5.4321,-5.4342,0,0,-5.4329,-5.433,0,0,0,0,0,0,0,0,-5.4122,-5.4129,-5.419,-5.4192,-5.4195,-5.4239,-5.4223,-5.4272,-5.426,-5.4235,-5.4259,-5.4259,-5.4291,-5.4296,-5.4308,-5.4345,-5.4348,-5.4329,-5.4331,-5.4332,-5.4333,0,0,0,0,0,0,0,-5.4119,-5.4126,-5.4198,-5.4191,-5.4194,-5.42,-5.4207,-5.4232,-5.4264,-5.4237,-5.4239,-5.4247,-5.4293,-5.4305,-5.4309,-5.4348,-5.4329,-5.4332,-5.4333,-5.4334,-5.441,-5.4411,0,0,0,0,0,0,-5.4112,-5.4123,-5.4196,-5.4199,-5.4158,-5.4202,-5.4209,-5.4225,-5.4264,-5.4269,-5.4247,-5.4247,-5.4301,-5.4306,-5.4312,-5.4341,-5.4332,-5.4334,-5.4336,-5.441,-5.441,-5.4411,0,0,0,0,0,0,-5.411,-5.4119,-5.4193,-5.4162,-5.4172,-5.4204,-5.4222,-5.4227,-5.4239,-5.4271,-5.4276,-5.4254,-5.4301,-5.4308,-5.4336,-5.4344,-5.4336,-5.4338,-5.4409,-5.441,-5.4411,-5.4399,0,0,0,0,0,0,-5.4107,-5.4118,-5.4126,-5.4162,-5.4174,-5.4216,-5.4222,-5.4228,-5.4244,-5.4246,-5.4279,-5.4284,-5.4301,-5.4332,-5.4338,-5.4347,-5.434,-5.4409,-5.441,-5.441,-5.4399,-5.44,-5.44,0,0,0,0,0,-5.4104,-5.4118,-5.4126,-5.4135,-5.4184,-5.4217,-5.4223,-5.4244,-5.4245,-5.4254,-5.4275,-5.4283,-5.4342,-5.4334,-5.4342,-5.4351,-5.4408,-5.4409,-5.441,-5.4399,-5.44,-5.44,0,0,0,0,0,0,-5.4079,-5.4123,-5.4132,-5.4159,-5.4184,-5.4221,-5.4232,-5.4243,-5.4268,-5.4268,-5.4292,-5.4299,-5.4326,-5.4341,-5.4332,-5.4376,-5.4376,-5.4378,-5.4365,-5.4365,-5.4366,-5.4361,-5.4342,0,0,0,0,0,-5.4077,-5.41,-5.4137,-5.4157,-5.417,-5.4199,-5.4214,-5.4229,-5.4255,-5.4265,-5.4288,-5.4312,-5.4337,-5.4352,-5.4376,-5.4402,-5.4411,-5.4413,-5.4413,-5.4414,-5.4415,-5.4434,-5.4436,-5.4415,-5.4415,-5.4415,0,0,-5.4072,-5.4099,-5.4112,-5.4153,-5.4175,-5.4199,-5.4207,-5.4231,-5.4249,-5.4268,-5.4297,-5.4315,-5.4344,-5.4372,-5.4386,-5.4386,-5.4424,-5.4415,-5.4415,-5.4416,-5.4435,-5.4437,-5.4439,-5.4415,-5.4415,-5.4415,0,0,-5.4076,-5.4098,-5.4119,-5.4142,-5.4176,-5.4196,-5.4201,-5.4237,-5.425,-5.428,-5.4296,-5.4318,-5.4359,-5.438,-5.4396,-5.4414,-5.4424,-5.4421,-5.4423,-5.4441,-5.4442,-5.4444,-5.4452,-5.4454,-5.4423,-5.4423,-5.4423,0,-5.4065,-5.4103,-5.4128,-5.4153,-5.4172,-5.4193,-5.4216,-5.4236,-5.4274,-5.4287,-5.4288,-5.4343,-5.4363,-5.4398,-5.4404,-5.4415,-5.4423,-5.4417,-5.444,-5.4442,-5.4444,-5.4452,-5.4455,-5.4423,-5.4423,-5.4423,-5.4423,0,-5.4089,-5.4115,-5.4128,-5.4169,-5.4189,-5.4212,-5.4242,-5.4259,-5.4273,-5.4294,-5.4326,-5.4352,-5.4384,-5.4393,-5.4405,-5.4431,-5.4431,-5.4436,-5.4436,-5.4445,-5.4453,-5.4456,-5.4422,-5.4422,-5.4422,-5.4423,0,0,-5.4075,-5.4134,-5.4138,-5.4159,-5.42,-5.422,-5.4246,-5.4279,-5.4295,-5.4322,-5.4344,-5.4381,-5.4388,-5.4406,-5.4422,-5.4437,-5.4453,-5.4441,-5.4442,-5.4443,-5.4485,-5.4482,-5.4485,-5.446,-5.4461,-5.4462,-5.4483,0,-5.4085,-5.4133,-5.4159,-5.4195,-5.4221,-5.4245,-5.4268,-5.4296,-5.4316,-5.4341,-5.4364,-5.439,-5.4396,-5.4408,-5.4424,-5.4447,-5.4462,-5.4446,-5.4481,-5.4482,-5.4473,-5.4489,-5.4484,-5.4503,-5.4487,-5.4487,-5.4487,0,-5.4101,-5.4133,-5.4173,-5.4216,-5.4227,-5.4247,-5.4282,-5.4306,-5.4339,-5.4354,-5.4377,-5.4394,-5.4422,-5.4422,-5.4462,-5.4451,-5.4468,-5.4482,-5.4483,-5.4487,-5.4485,-5.4493,-5.4509,-5.4512,-5.4492,-5.4492,-5.4492,0,-5.4089,-5.4141,-5.4173,-5.4189,-5.4239,-5.4253,-5.4275,-5.4308,-5.4328,-5.4359,-5.4372,-5.4405,-5.4422,-5.4447,-5.4473,-5.447,-5.4512,-5.4513,-5.4525,-5.4524,-5.4531,-5.453,-5.4551,-5.4542,-5.4542,-5.4542,-5.4541,0,-5.4097,-5.4121,-5.4168,-5.4187,-5.4216,-5.4247,-5.4274,-5.4297,-5.4328,-5.4353,-5.4375,-5.4397,-5.443,-5.4457,-5.4477,-5.4509,-5.4516,-5.4529,-5.4534,-5.4527,-5.4525,-5.4537,-5.4536,-5.4542,-5.4542,-5.4542,-5.4542,0,-5.4087,-5.4119,-5.4156,-5.4203,-5.4215,-5.4234,-5.4274,-5.4294,-5.4319,-5.435,-5.4359,-5.4396,-5.4429,-5.4458,-5.4501,-5.4515,-5.4548,-5.4553,-5.4537,-5.454,-5.4551,-5.455,-5.4579,-5.4586,-5.4572,-5.4572,-5.4572,0,-5.4089,-5.4109,-5.416,-5.418,-5.4202,-5.4232,-5.4254,-5.4287,-5.4308,-5.4351,-5.4367,-5.4402,-5.4432,-5.4485,-5.4515,-5.4549,-5.4556,-5.4564,-5.4561,-5.4555,-5.4557,-5.4556,-5.4559,-5.4564,-5.4564,-5.4564,-5.4564,0,-5.4092,-5.4108,-5.414,-5.4179,-5.4206,-5.4237,-5.4269,-5.4283,-5.4322,-5.4346,-5.4382,-5.4406,-5.4452,-5.4488,-5.4526,-5.4548,-5.4562,-5.4565,-5.457,-5.4563,-5.4553,-5.456,-5.4538,-5.4564,-5.4564,-5.4564,-5.4564,-5.4564,-5.4089,-5.4109,-5.4149,-5.4185,-5.4214,-5.4244,-5.4267,-5.4296,-5.4328,-5.437,-5.4387,-5.4425,-5.4461,-5.4515,-5.4537,-5.4567,-5.4569,-5.4575,-5.4577,-5.4578,-5.4578,-5.4549,-5.4573,-5.4573,-5.4573,-5.4573,-5.4573,0,-5.4093,-5.4122,-5.4155,-5.4201,-5.423,-5.4245,-5.4283,-5.4305,-5.4339,-5.4373,-5.4404,-5.4447,-5.4483,-5.4518,-5.4556,-5.4573,-5.4581,-5.4582,-5.4581,-5.4586,-5.4573,-5.4565,-5.4576,-5.4576,-5.4576,-5.4576,-5.4575,-5.4575,-5.4099,-5.4135,-5.4157,-5.4209,-5.4237,-5.4276,-5.4297,-5.4326,-5.4354,-5.4402,-5.4433,-5.4457,-5.4492,-5.4534,-5.4568,-5.4578,-5.4591,-5.459,-5.4601,-5.4587,-5.4587,-5.4586,-5.458,-5.4592,-5.4592,-5.4612,-5.4613,-5.4613]}]]